Location: Bastrop State Park
(30.1090°N, 97.2819°W)
Time: 11:24:17
(UTC-05:00)

Daily predictions for brighter satellites

Satellite Brightness Start Highest point End
(mag) Time Altitude Azimuth Time Altitude Azimuth Time Altitude Azimuth
Cosmos 405 2.9 20:01:00 10° S 20:04:29 69° E 20:08:00 10° NNE
Cosmos 923 Rocket 4.5 20:00:42 10° NNW 20:06:01 71° WSW 20:11:18 10° S
IUS-7 SRM-1 4.2 20:05:59 10° S 20:06:42 11° SSE 20:07:27 10° SE
Cosmos 2344 3.6 19:59:52 10° SSW 20:07:37 71° ESE 20:15:33 10° NE
METEOR-M 4.1 20:07:15 10° SSE 20:12:35 82° ENE 20:17:55 10° N
ATLAS CENTAUR R/B 4.1 20:12:03 10° WNW 20:14:15 15° WSW 20:16:25 10° SSW
Yuri Rocket 3.0 20:11:06 10° WSW 20:15:25 67° S 20:19:20 11° E
Meteor 1-22 Rocket 4.5 20:12:07 10° SSE 20:17:34 49° E 20:23:14 10° NNE
Cosmos 1437 Rocket 2.7 20:14:21 10° S 20:18:15 69° E 20:22:16 10° NNE
Helios 1B rocket 3.9 20:16:26 10° NE 20:19:11 17° E 20:21:54 10° SE
SJ-6B 2.7 20:15:46 10° SSE 20:19:27 59° ENE 20:23:07 10° N
Lacrosse 4 Rocket 2.4 20:18:42 10° SW 20:22:38 48° WNW 20:26:33 10° N
Resurs 1-3 4.5 20:23:05 10° SE 20:26:50 28° ENE 20:30:35 10° NNE
SWIFT 4.1 20:28:41 10° SW 20:32:01 22° S 20:34:55 12° SE
Spot 2 Rocket 3.8 20:31:56 10° SE 20:36:45 45° ENE 20:41:36 10° N
Cosmos 1844 Rocket 4.0 20:32:08 10° SW 20:37:30 44° WNW 20:42:54 10° N
Delta 2 Rocket 4.2 20:31:25 10° W 20:38:21 62° S 20:42:52 19° ESE
Cosmos 1758 4.3 20:36:01 10° SE 20:39:14 24° E 20:42:27 10° NE
GPS 2-05 Rocket1 3.5 20:36:47 10° SW 20:40:08 39° SSE 20:41:43 25° E
Cosmos 192 4.3 20:36:02 10° NNW 20:40:59 89° WSW 20:45:52 10° SSE
FengYun 1-2 T 4.2 20:40:52 10° SSE 20:46:23 82° ENE 20:52:00 10° N
Cosmos 2278 Rocket 2.1 20:41:09 10° SSW 20:46:48 83° ESE 20:52:30 10° NNE
CZ-3 Stage 3 4.3 19:38:11 10° WSW 20:48:03 90° SSE 20:54:41 20° E
Tiangong 1 3.5 20:47:06 10° N 20:48:06 11° NNE 20:48:48 11° NNE
USA 215 3.2 20:41:36 10° NE 20:48:09 82° SE 20:54:40 10° SW
Cosmos 1953 3.1 20:46:48 15° SE 20:49:29 30° E 20:53:04 10° NNE
Cosmos 1378 3.1 20:46:57 10° N 20:50:43 87° W 20:54:27 10° S
Cosmos 1934 Rocket 4.1 20:47:05 10° S 20:53:16 80° W 20:59:23 10° N
H-2A R/B 2.6 20:50:47 10° SSE 20:54:37 80° ENE 20:58:31 10° N
Envisat 4.1 20:54:31 23° ENE 20:54:47 23° ENE 20:58:43 10° NNE
FENGYUN 3A 3.9 20:51:17 10° S 20:56:41 72° WSW 21:02:05 10° NNW
Okean 3 Rocket 4.0 20:54:18 10° NNE 20:58:25 39° E 20:59:29 33° ESE
Cosmos 2297 4.0 20:53:50 10° S 20:59:10 43° ESE 21:04:34 10° NE
Cosmos 1125 Rocket 3.7 20:55:10 10° S 21:00:06 46° ESE 21:05:04 10° NNE
Meteor 1-24 Rocket 3.8 21:02:27 10° N 21:07:58 80° W 21:13:41 10° S
ATLAS 5 CENTAUR R/B 3.4 21:07:08 10° S 21:08:20 17° SSE 21:08:20 17° SSE
Meteor 1-4 Rocket 4.3 21:14:46 20° NNE 21:14:46 20° NNE 21:15:59 10° NNE
ALOS 3.6 21:08:22 10° SSW 21:12:43 39° W 21:17:05 10° NNW
GP-B 3.5 21:14:50 43° ENE 21:14:50 43° ENE 21:18:33 10° NNE
Cosmos 1544 3.0 21:10:48 10° S 21:14:24 85° W 21:18:04 10° N
Resurs 01 Rocket 2.2 21:11:03 10° S 21:15:22 58° W 21:19:43 10° NNW
Aurora 2 Rocket 3.8 21:14:02 10° SW 21:19:27 32° S 21:19:49 31° SSE
RESURS DK-1 2.3 21:18:12 10° NNW 21:22:06 67° NE 21:22:06 67° NE
Cosmos 2082 Rocket 3.6 21:18:15 10° N 21:21:38 22° NE 21:21:38 22° NE
SL-27 R/B 2.6 21:20:49 10° NNW 21:24:14 73° WNW 21:24:14 73° WNW
Meteor 1-29 4.0 21:24:02 10° N 21:26:20 39° N 21:26:20 39° N
Timation 1 Rocket 4.5 21:24:15 10° SSW 21:30:13 75° WNW 21:36:15 10° NNE
Cosmos 2100 Rocket 4.0 21:28:37 42° SE 21:30:19 55° E 21:36:29 10° NNE
Lacrosse 5 3.9 21:26:12 10° W 21:30:24 26° NW 21:34:37 10° NNE
SeaSat 1 4.3 21:29:51 10° SSW 21:34:00 27° WSW 21:38:11 10° NW
Delta 2 Rocket 4.0 21:33:26 10° WNW 21:37:14 50° NNW 21:37:14 50° NNW
Cosmos 2098 Rocket 4.4 21:31:34 10° S 21:38:12 79° W 21:45:46 10° N
Cosmos 1076 Rocket 4.4 21:33:59 10° N 21:36:39 37° N 21:36:39 37° N
Spot 1 4.4 21:38:32 56° SSW 21:39:20 68° WSW 21:44:02 10° NNW
Delta 128 4.3 21:40:21 10° WSW 21:43:40 46° SW 21:43:40 46° SW
Meteor 1-21 Rocket 4.1 21:42:16 10° N 21:48:08 82° E 21:48:21 80° ESE
Helios 1A 3.9 21:50:45 45° W 21:50:45 45° W 21:54:37 10° NNW
Cosmos 2061 Rocket 3.9 21:56:15 74° NE 21:56:15 74° NE 22:02:13 10° N
Cosmos 1867 4.2 21:50:48 10° SW 21:56:06 54° WNW 22:01:27 10° NNE
Cosmos 1833 Rocket 4.4 22:31:54 10° NNW 22:34:24 27° NNW 22:34:24 27° NNW
Cosmos 2082 Rocket 4.5 23:01:41 10° NW 23:03:31 20° NW 23:03:31 20° NW
